Home   Weather   Leeuwarden   Past weeks
Flag for Netherlands

Past Weather in Leeuwarden, Friesland, Netherlands — Yesterday and Last 2 Weeks

Now
57 °F

Mostly cloudy.


Feels Like: 55 °F
Forecast: 62 / 54 °F
Wind: 9 mph from Northeast

Location: Leeuwarden Airport

Current Time: Oct 14, 2019 at 4:18:14 pm

Latest Report: Oct 14, 2019 at 3:25 pm


Visibility: N/A

Pressure: 29.86 "Hg

Humidity: 88%

Dew Point: 54 °F

Location of LeeuwardenLocation

Past Weather in Leeuwarden — Graph

°F

Leeuwarden Temperature Yesterday

Maximum temperature yesterday: 66 °F (at 3:55 pm)
Minimum temperature yesterday: 52 °F (at 12:14 am)
Average temperature yesterday: 57 °F

High & Low Weather Summary for the Past Weeks

 TemperatureHumidityPressure
High66 °F (Oct 13, 3:55 pm)100% (Sep 29, 3:42 pm)30.12 "Hg (Sep 29, 3:42 pm)
Low39 °F (Oct 5, 5:26 am)63% (Oct 2, 12:25 pm)29.24 "Hg (Sep 29, 7:25 pm)
Average53 °F88%29.74 "Hg
* Reported Sep 29 2:18 pm — Oct 14 2:55 pm, Leeuwarden. Weather by CustomWeather, © 2019

Note: Actual official high and low records may vary slightly from our data, if they occured in-between our weather recording intervals... More about our weather records

Advertising

Leeuwarden Weather History for the Previous 24 Hours

Scroll right to see more
 ConditionsComfort  
Time TempWeatherWind HumidityBarometerVisibility
2:55 pm
Mon, Oct 14
55 °FOvercast.7 mph94%29.89 "HgN/A
2:27 pm55 °FDrizzle. Broken clouds.7 mph94%29.89 "HgN/A
1:55 pm57 °FOvercast.5 mph82%29.89 "HgN/A
1:25 pm57 °FMore clouds than sun.5 mph88%29.89 "HgN/A
12:55 pm55 °FOvercast.2 mph88%29.92 "HgN/A
12:25 pm55 °FMostly cloudy.6 mph94%29.92 "HgN/A
11:55 am55 °FMostly cloudy.2 mph94%29.95 "HgN/A
11:25 am55 °FOvercast.3 mph88%29.95 "HgN/A
10:55 am55 °FOvercast.5 mph88%29.92 "HgN/A
9:55 am54 °FOvercast.3 mph94%29.92 "HgN/A
9:25 am54 °FOvercast.2 mph94%29.92 "HgN/A
8:55 am52 °FOvercast.5 mph94%29.92 "HgN/A
8:25 am52 °FMore clouds than sun.5 mph94%29.89 "HgN/A
7:55 am52 °FOvercast.6 mph94%29.89 "HgN/A
7:25 am52 °FOvercast.6 mph94%29.89 "HgN/A
6:55 am52 °FOvercast.6 mph94%29.89 "HgN/A
6:25 am52 °FOvercast.6 mph94%29.89 "HgN/A
5:55 am52 °FOvercast.5 mph94%29.86 "HgN/A
5:25 am52 °FOvercast.6 mph94%29.86 "HgN/A
4:55 am52 °FOvercast.8 mph94%29.86 "HgN/A
4:25 am52 °FOvercast.8 mph94%29.86 "HgN/A
3:55 am52 °FOvercast.8 mph94%29.83 "HgN/A
3:25 am55 °FOvercast.12 mph82%29.83 "HgN/A
2:55 am55 °FPassing clouds.12 mph82%29.83 "HgN/A
2:25 am55 °FCool.13 mph82%29.83 "HgN/A
1:55 am57 °FPassing clouds.16 mph82%29.80 "HgN/A
1:25 am57 °FPassing clouds.14 mph82%29.80 "HgN/A
12:55 am57 °FPassing clouds.18 mph82%29.77 "HgN/A
12:25 am57 °FCool.16 mph88%29.77 "HgN/A
12:00 am59 °FPartly cloudy.18 mph82%29.74 "HgN/A
11:25 pm
Sun, Oct 13
59 °FPassing clouds.16 mph88%29.74 "HgN/A
11:08 pm59 °FPassing clouds.16 mph88%29.71 "HgN/A
10:55 pm59 °FMostly cloudy.18 mph88%29.71 "HgN/A
10:25 pm59 °FPassing clouds.16 mph88%29.71 "HgN/A
9:55 pm61 °FOvercast.18 mph83%29.68 "HgN/A
9:25 pm61 °FMostly cloudy.20 mph88%29.68 "HgN/A
9:17 pm61 °FPartly cloudy.20 mph88%29.65 "HgN/A
8:55 pm63 °FMostly cloudy.21 mph83%29.65 "HgN/A
8:36 pm63 °FOvercast.22 mph88%29.65 "HgN/A
7:55 pm64 °FMostly cloudy.20 mph83%29.62 "HgN/A
7:25 pm64 °FOvercast.17 mph83%29.62 "HgN/A
7:03 pm64 °FPassing clouds.18 mph83%29.62 "HgN/A
6:55 pm64 °FMostly cloudy.21 mph88%29.62 "HgN/A
6:25 pm66 °FBroken clouds.20 mph83%29.62 "HgN/A
5:55 pm66 °FMore clouds than sun.15 mph83%29.59 "HgN/A
5:25 pm66 °FDrizzle. Broken clouds.13 mph88%29.59 "HgN/A
4:55 pm66 °FMore clouds than sun.14 mph88%29.59 "HgN/A
4:25 pm66 °FMostly cloudy.10 mph88%29.59 "HgN/A
Weather by CustomWeather, © 2019

See weather overview